FW0394 Weather Reports


Display with metric or nautical units.
time (UTC)temp
F
wind
direction
speed
MPH
gust
MPH
rain 1hr
in
rain 24hr
in
rain mn
in
humidity
%
barometer
mb
20260505111503 47 0 0.0 0.0 0.00 0.04 0.03 79 1009.7
20260505111003 47 261 0.0 1.0 0.00 0.04 0.03 79 1009.9
20260505110713 47 261 0.0 1.0 0.00 0.04 0.03 79 1009.8
20260505102004 47 0 0.0 0.0 0.00 0.04 0.03 82 1010.2
20260505101503 47 0 0.0 0.0 0.00 0.04 0.03 84 1010.2
20260505101003 47 0 0.0 0.0 0.00 0.04 0.03 84 1010.2
20260505100713 48 0 0.0 0.0 0.00 0.04 0.03 85 1010.0
20260505095713 48 261 0.0 1.0 0.00 0.04 0.03 85 1010.1
20260505095003 48 261 0.0 1.0 0.00 0.04 0.03 85 1010.1
20260505094503 48 261 0.0 1.0 0.00 0.04 0.03 85 1010.1
20260505094003 48 261 0.0 2.0 0.00 0.04 0.03 85 1010.0
20260505093503 48 261 0.0 2.0 0.00 0.04 0.03 85 1010.0
20260505093004 48 261 0.0 1.0 0.00 0.04 0.03 85 1009.7
20260505092712 48 261 0.0 2.0 0.00 0.04 0.03 85 1009.7
20260505092005 48 261 0.0 2.0 0.00 0.04 0.03 84 1009.6
20260505091503 48 261 0.0 2.0 0.00 0.04 0.03 84 1009.4
20260505091003 48 261 0.0 2.0 0.00 0.04 0.03 84 1009.2
20260505090714 48 260 0.0 2.0 0.00 0.04 0.03 83 1009.3
20260505090003 48 260 0.0 2.0 0.00 0.04 0.03 83 1009.1
20260505085503 48 260 0.0 2.0 0.00 0.04 0.03 84 1009.2
20260505085004 48 260 0.0 2.0 0.00 0.04 0.03 84 1009.2
20260505084503 48 262 1.0 4.0 0.00 0.04 0.03 85 1009.1
20260505084003 48 268 1.0 4.0 0.01 0.04 0.03 85 1009.0
20260505083503 49 279 1.0 3.0 0.01 0.04 0.03 85 1009.2
20260505083213 48 280 1.0 4.0 0.01 0.04 0.03 86 1009.2
20260505082503 49 301 1.0 4.0 0.01 0.04 0.03 87 1009.2
20260505082003 49 318 1.0 4.0 0.01 0.04 0.03 87 1009.1
20260505081714 49 319 2.0 4.0 0.01 0.04 0.03 87 1009.0
20260505081003 48 322 0.0 3.0 0.01 0.04 0.03 86 1008.8
20260505080503 48 0 0.0 0.0 0.01 0.04 0.03 85 1008.6
20260505080003 48 0 0.0 0.0 0.01 0.04 0.03 85 1008.4
20260505075503 48 0 0.0 0.0 0.01 0.04 0.03 84 1008.5
20260505075004 49 0 0.0 0.0 0.02 0.04 0.03 85 1008.5
20260505074503 48 0 0.0 0.0 0.02 0.04 0.03 85 1008.6
20260505074003 48 0 0.0 0.0 0.01 0.03 0.02 83 1008.5
20260505073503 48 0 0.0 0.0 0.01 0.03 0.02 83 1008.6
20260505073003 48 0 0.0 0.0 0.01 0.03 0.02 83 1008.6
20260505072503 48 13 0.0 2.0 0.01 0.03 0.02 82 1008.7
20260505072003 48 13 0.0 2.0 0.01 0.03 0.02 81 1008.6
20260505071503 48 0 0.0 0.0 0.01 0.03 0.02 80 1008.4
20260505071003 49 0 0.0 0.0 0.01 0.03 0.02 80 1008.4
20260505070503 49 0 0.0 1.0 0.01 0.03 0.02 80 1008.4
20260505070003 49 13 0.0 2.0 0.01 0.03 0.02 78 1008.5
20260505065713 49 13 0.0 2.0 0.01 0.03 0.02 77 1008.5
20260505065003 50 14 0.0 3.0 0.00 0.02 0.01 75 1008.1
20260505064503 50 11 1.0 4.0 0.00 0.02 0.01 73 1008.1
20260505064003 50 9 1.0 4.0 0.00 0.02 0.01 71 1008.1
20260505063503 50 14 1.0 4.0 0.00 0.02 0.01 70 1008.4
20260505063003 50 37 2.0 5.0 0.00 0.02 0.01 70 1008.6
20260505062503 50 46 2.0 5.0 0.00 0.02 0.01 69 1008.1
20260505062003 50 32 2.0 5.0 0.00 0.02 0.01 67 1008.3
20260505061503 50 360 1.0 4.0 0.00 0.02 0.01 66 1008.7
20260505061003 50 360 1.0 4.0 0.01 0.02 0.01 66 1009.2
20260505060503 50 43 1.0 10.0 0.01 0.02 0.01 64 1008.8
20260505060214 50 45 2.0 10.0 0.01 0.02 0.01 64 1008.7
20260505055503 50 36 2.0 5.0 0.01 0.02 0.01 64 1008.4
20260505055003 50 52 1.0 4.0 0.01 0.02 0.01 65 1008.7
20260505054504 50 52 2.0 5.0 0.01 0.02 0.01 63 1008.8
20260505054214 50 44 2.0 5.0 0.01 0.02 0.01 64 1008.7
20260505053503 51 41 2.0 7.0 0.01 0.02 0.01 63 1008.8
20260505053003 51 49 3.0 8.0 0.01 0.02 0.01 64 1008.7
20260505052713 51 43 3.0 9.0 0.01 0.02 0.01 65 1008.7
20260505052003 51 42 5.0 13.0 0.01 0.02 0.01 63 1008.1
20260505051713 51 45 4.0 13.0 0.01 0.02 0.01 64 1008.0
20260505051214 51 46 4.0 12.0 0.01 0.02 0.01 64 1008.1
20260505050503 51 39 3.0 7.0 0.00 0.01 0.00 65 1008.4
20260505041504 55 353 3.0 10.0 0.00 0.01 0.01 46 1009.0
20260505041003 55 6 3.0 11.0 0.00 0.01 0.01 45 1008.8
20260505040503 56 5 2.0 11.0 0.00 0.01 0.01 44 1008.9
20260505040213 56 28 2.0 8.0 0.00 0.01 0.01 43 1008.6
20260505035503 56 8 2.0 10.0 0.00 0.01 0.01 43 1008.4
20260505035213 56 3 3.0 10.0 0.00 0.01 0.01 44 1008.5
20260505034503 56 16 3.0 11.0 0.00 0.01 0.01 43 1008.2
20260505034213 56 14 3.0 11.0 0.00 0.01 0.01 43 1008.1
20260505033503 56 360 4.0 12.0 0.00 0.01 0.01 43 1008.1
20260505033003 56 8 4.0 12.0 0.00 0.01 0.01 43 1008.0
20260505032503 56 16 4.0 13.0 0.00 0.01 0.01 42 1007.6
20260505032003 56 15 5.0 13.0 0.00 0.01 0.01 42 1007.7
20260505031503 56 17 5.0 12.0 0.00 0.01 0.01 42 1007.7
20260505031213 57 20 4.0 12.0 0.00 0.01 0.01 43 1007.7
20260505030503 57 29 4.0 14.0 0.00 0.01 0.01 43 1007.8
20260505030004 57 26 3.0 14.0 0.00 0.01 0.01 43 1007.6
20260505025503 57 12 3.0 10.0 0.00 0.01 0.01 43 1007.6
20260505025003 57 21 3.0 10.0 0.00 0.01 0.01 43 1007.5
20260505024503 57 3 3.0 9.0 0.00 0.01 0.01 43 1007.5
20260505024003 57 346 4.0 9.0 0.00 0.01 0.01 42 1007.4
20260505023503 57 360 5.0 17.0 0.00 0.01 0.01 42 1007.2
20260505022503 58 10 6.0 17.0 0.00 0.01 0.01 42 1006.5
20260505022003 58 4 4.0 17.0 0.00 0.01 0.01 42 1006.5
20260505021503 58 360 4.0 13.0 0.00 0.01 0.01 42 1006.5
20260505021003 58 21 5.0 15.0 0.00 0.01 0.01 42 1006.2
20260505020503 58 29 6.0 17.0 0.00 0.01 0.01 42 1006.1
20260505020003 58 15 5.0 17.0 0.00 0.01 0.01 42 1006.2
20260505015503 59 10 6.0 16.0 0.00 0.01 0.01 43 1006.3
20260505015003 59 8 6.0 16.0 0.00 0.01 0.01 42 1006.3
20260505014503 60 18 6.0 14.0 0.00 0.01 0.01 41 1006.1
20260505014213 60 20 5.0 14.0 0.00 0.01 0.01 40 1006.0
20260505013503 60 14 6.0 17.0 0.00 0.01 0.01 39 1005.6
20260505013213 60 16 6.0 17.0 0.00 0.01 0.01 39 1005.7
20260505012503 61 15 6.0 13.0 0.00 0.01 0.01 38 1005.4
20260505012003 61 10 5.0 13.0 0.00 0.01 0.01 38 1005.6
20260505011003 62 355 6.0 15.0 0.00 0.01 0.01 37 1005.5
20260505010713 62 355 6.0 15.0 0.00 0.01 0.01 36 1005.5
20260505010004 63 359 5.0 13.0 0.00 0.01 0.01 35 1005.1
20260505005503 64 3 5.0 11.0 0.00 0.01 0.01 34 1005.1
20260505005004 64 1 6.0 15.0 0.00 0.01 0.01 35 1005.0
20260505004503 65 16 6.0 15.0 0.00 0.01 0.01 34 1004.8
20260505004212 65 21 6.0 14.0 0.00 0.01 0.01 34 1004.8
20260505003504 66 2 4.0 12.0 0.00 0.01 0.01 33 1004.8
20260505003004 66 359 5.0 16.0 0.00 0.01 0.01 34 1004.8
20260505002503 67 16 6.0 16.0 0.00 0.01 0.01 33 1004.6
20260505002003 68 29 5.0 16.0 0.00 0.01 0.01 34 1004.4
20260505001503 68 23 5.0 15.0 0.00 0.01 0.01 33 1004.2
20260505001003 68 24 5.0 15.0 0.00 0.01 0.01 33 1004.3
20260505000503 69 20 4.0 15.0 0.00 0.01 0.01 33 1004.3
20260505000003 69 5 3.0 15.0 0.00 0.01 0.01 33 1004.2
20260504235713 69 3 3.0 12.0 0.00 0.01 0.01 32 1004.1
20260504235003 69 10 4.0 14.0 0.00 0.01 0.01 32 1004.3
20260504234503 70 5 4.0 12.0 0.00 0.01 0.01 32 1004.1
20260504234003 70 352 4.0 19.0 0.00 0.01 0.01 32 1004.0
20260504233504 70 3 4.0 19.0 0.00 0.01 0.01 31 1004.1
20260504233214 71 6 5.0 19.0 0.00 0.01 0.01 31 1004.0
20260504232503 71 23 4.0 15.0 0.00 0.01 0.01 31 1003.9
20260504232003 71 358 5.0 16.0 0.00 0.01 0.01 33 1003.7
20260504231503 71 359 6.0 16.0 0.00 0.01 0.01 30 1003.6
20260504231214 72 360 5.0 14.0 0.00 0.01 0.01 31 1003.5
20260504230503 73 332 4.0 22.0 0.00 0.01 0.01 29 1003.4
20260504230003 73 331 5.0 22.0 0.00 0.01 0.01 29 1003.4
20260504225503 74 345 4.0 15.0 0.00 0.01 0.01 30 1003.3
20260504225003 74 3 4.0 13.0 0.00 0.01 0.01 31 1003.1
20260504224712 74 359 4.0 13.0 0.00 0.01 0.01 28 1003.0
20260504224003 74 357 6.0 17.0 0.00 0.01 0.01 29 1002.8
20260504223712 74 13 5.0 17.0 0.00 0.01 0.01 30 1002.8
20260504223003 75 356 5.0 13.0 0.00 0.01 0.01 29 1002.7
20260504222712 75 340 5.0 17.0 0.00 0.01 0.01 32 1002.6
20260504222003 76 343 5.0 17.0 0.00 0.01 0.01 28 1002.5
20260504221503 76 334 5.0 18.0 0.00 0.01 0.01 29 1002.3
20260504221003 77 331 4.0 18.0 0.00 0.01 0.01 28 1002.2
20260504220503 77 349 4.0 14.0 0.00 0.01 0.01 31 1002.2
20260504220003 77 351 4.0 14.0 0.00 0.01 0.01 30 1001.9
20260504215503 78 336 3.0 10.0 0.00 0.01 0.01 29 1002.0
20260504215213 78 336 4.0 10.0 0.00 0.01 0.01 28 1002.0
20260504214503 78 346 4.0 12.0 0.00 0.01 0.01 29 1001.8
20260504214003 78 10 3.0 12.0 0.01 0.01 0.01 30 1001.9
20260504213712 78 10 3.0 11.0 0.01 0.01 0.01 29 1001.9
20260504213008 78 343 4.0 13.0 0.01 0.01 0.01 31 1001.9
20260504212503 78 327 4.0 13.0 0.01 0.01 0.01 33 1001.9
20260504212003 78 333 3.0 9.0 0.01 0.01 0.01 31 1001.9
20260504211714 78 304 4.0 9.0 0.01 0.01 0.01 34 1001.7
20260504211003 78 321 4.0 10.0 0.01 0.01 0.01 30 1001.7
20260504210503 78 322 4.0 10.0 0.01 0.01 0.01 34 1001.6
20260504210213 78 319 4.0 10.0 0.01 0.01 0.01 34 1001.7
20260504205714 78 316 3.0 10.0 0.01 0.01 0.01 35 1001.7
20260504205003 78 339 3.0 11.0 0.01 0.01 0.01 34 1001.6
20260504204503 79 324 4.0 13.0 0.01 0.01 0.01 36 1001.6
20260504204003 79 317 4.0 13.0 0.00 0.00 0.00 32 1001.6
20260504203503 79 335 4.0 9.0 0.00 0.00 0.00 35 1001.6
20260504203003 79 359 5.0 12.0 0.00 0.00 0.00 37 1001.5
20260504202504 79 354 4.0 12.0 0.00 0.00 0.00 38 1001.5
20260504202212 79 350 4.0 12.0 0.00 0.00 0.00 37 1001.5
20260504201503 79 338 4.0 11.0 0.00 0.00 0.00 35 1001.6
20260504201004 80 347 4.0 11.0 0.00 0.00 0.00 35 1001.5
20260504200713 80 1 5.0 11.0 0.00 0.00 0.00 32 1001.5
20260504200212 80 348 4.0 11.0 0.00 0.00 0.00 33 1001.3
20260504195713 81 320 4.0 11.0 0.00 0.00 0.00 34 1001.3
20260504195003 80 328 3.0 10.0 0.00 0.00 0.00 35 1001.5
20260504194503 80 316 4.0 10.0 0.00 0.00 0.00 34 1001.3
20260504194003 80 314 4.0 13.0 0.00 0.00 0.00 34 1001.2
20260504193503 80 342 4.0 13.0 0.00 0.00 0.00 34 1001.2
20260504193003 80 338 4.0 12.0 0.00 0.00 0.00 35 1001.2
20260504192504 81 306 4.0 14.0 0.00 0.00 0.00 34 1001.1
20260504192003 81 301 4.0 14.0 0.00 0.00 0.00 37 1001.1
20260504191503 81 317 3.0 8.0 0.00 0.00 0.00 35 1001.1
20260504191003 81 307 4.0 11.0 0.00 0.00 0.00 35 1001.0
20260504190504 81 286 5.0 14.0 0.00 0.00 0.00 31 1001.1
20260504190214 81 295 5.0 14.0 0.00 0.00 0.00 33 1000.8
20260504185713 81 322 4.0 10.0 0.00 0.00 0.00 32 1001.0
20260504185003 81 333 4.0 15.0 0.00 0.00 0.00 34 1000.8
20260504184503 82 338 4.0 15.0 0.00 0.00 0.00 31 1000.8
20260504184214 82 326 4.0 11.0 0.00 0.00 0.00 32 1000.8
20260504183503 82 312 4.0 12.0 0.00 0.00 0.00 31 1000.7
20260504183003 82 295 4.0 17.0 0.00 0.00 0.00 29 1000.6
20260504182503 82 273 5.0 17.0 0.00 0.00 0.00 29 1000.7
20260504182003 82 281 4.0 14.0 0.00 0.00 0.00 28 1000.7
20260504181503 82 277 3.0 11.0 0.00 0.00 0.00 32 1000.7
20260504181003 81 275 4.0 12.0 0.00 0.00 0.00 35 1000.7
20260504180713 81 286 5.0 12.0 0.00 0.00 0.00 33 1000.8
20260504180003 81 300 4.0 11.0 0.00 0.00 0.00 33 1001.0
20260504175504 80 300 4.0 11.0 0.00 0.00 0.00 34 1001.0
20260504175004 81 297 4.0 11.0 0.00 0.00 0.00 29 1001.0
20260504174503 81 289 4.0 9.0 0.00 0.00 0.00 31 1001.0
20260504174003 80 292 4.0 14.0 0.00 0.00 0.00 32 1001.1
20260504173503 80 289 5.0 14.0 0.00 0.00 0.00 32 1001.1
20260504173003 80 279 4.0 14.0 0.00 0.00 0.00 36 1001.1
20260504172503 80 268 4.0 14.0 0.00 0.00 0.00 33 1001.1
20260504172003 80 272 5.0 15.0 0.00 0.00 0.00 32 1001.2
20260504171503 80 269 4.0 15.0 0.00 0.00 0.00 34 1001.0
20260504171003 80 279 3.0 11.0 0.00 0.00 0.00 33 1001.1
20260504170503 79 281 4.0 10.0 0.00 0.00 0.00 32 1001.1
20260504151003 69 256 3.0 8.0 0.00 0.00 0.00 48 1001.4
20260504150503 68 243 4.0 8.0 0.00 0.00 0.00 45 1001.5
20260504150212 68 247 3.0 8.0 0.00 0.00 0.00 46 1001.5
20260504141004 62 290 1.0 4.0 0.00 0.00 0.00 54 1001.8
20260504140713 61 288 2.0 7.0 0.00 0.00 0.00 54 1001.8
20260504140214 61 280 4.0 9.0 0.00 0.00 0.00 53 1001.8
20260504130503 55 0 0.0 0.0 0.00 0.00 0.00 67 1001.7